Regional Weather Roundup
Issued by NWS

Home | Current Version | Previous Version | Graphics & Text | Print | Product List | Glossary On
Versions: 1 2 3 4 5 6 7 8 9 10 11 12 13 14 15 16 17 18 19 20 21 22 23 24 25 26 27 28 29 30 31 32 33 34 35 36 37 38 39 40 41 42 43 44 45 46 47 48 49 50
042
ASUS43 KTOP 202359
RWRKS

WEATHER ROUNDUP FOR KANSAS
NATIONAL WEATHER SERVICE GOODLAND KS
700 PM CDT SUN AUG 20 2017

NOTE:  "FAIR" INDICATES FEW OR NO CLOUDS BELOW 12,000 FEET WITH NO
SIGNIFICANT WEATHER AND/OR OBSTRUCTIONS TO VISIBILITY.

KSZ001>006-013>018-027>032-041>047-210100-
NORTHWEST KANSAS

CITY           SKY/WX    TMP DP  RH WIND       PRES   REMARKS
GOODLAND       MOSUNNY   87  59  38 S10       29.95R
6HR MIN TEMP:  86; 6HR MAX TEMP:  93;

HAYS           PTSUNNY   93  62  35 S14       29.87S
HILL CITY      MOSUNNY   97  60  29 S8        29.87S HX  97
6HR MIN TEMP:  93; 6HR MAX TEMP: 102;

RUSSELL        CLOUDY    93  66  40 S14G23    29.87S HX  96
6HR MIN TEMP:  93; 6HR MAX TEMP:  98;

$$

KSZ061>065-074>080-084>089-210100-
SOUTHWEST KANSAS

CITY           SKY/WX    TMP DP  RH WIND       PRES   REMARKS
DODGE CITY     SUNNY     94  60  32 S20       29.93R
6HR MIN TEMP:  93; 6HR MAX TEMP:  99;

GARDEN CITY    SUNNY     90  62  39 S15       29.94R
6HR MIN TEMP:  89; 6HR MAX TEMP:  94;

GREAT BEND     MOSUNNY   90  68  48 S12       29.89S
LIBERAL        SUNNY     89  65  44 S12       29.95R
$$

KSZ066>073-081>083-090>101-210100-
SOUTHEAST KANSAS

CITY           SKY/WX    TMP DP  RH WIND       PRES   REMARKS
CHANUTE        MOSUNNY   90  76  63 S10       29.96S HX 101
6HR MIN TEMP:  90; 6HR MAX TEMP:  95;

COFFEYVILLE    MOSUNNY   87  67  51 S10       29.95S
6HR MIN TEMP:  87; 6HR MAX TEMP:  94;

HUTCHINSON     MOSUNNY   92  69  47 S8        29.90S HX  97
6HR MIN TEMP:  92; 6HR MAX TEMP:  97;

MEDICINE LODGE   N/A     92  68  45 S8        29.90R HX  96
NEWTON         PTSUNNY   88  74  63 SE9       29.94S HX  96
PARSONS        MOSUNNY   88  73  61 S9        29.97S HX  95
6HR MIN TEMP:  88; 6HR MAX TEMP:  94;

WICHITA INTL   MOSUNNY   93  66  40 S16       29.92R HX  96
6HR MIN TEMP:  93; 6HR MAX TEMP:  98;

WICHITA JABRA  SUNNY     90  71  53 S14       29.93R HX  96
6HR MIN TEMP:  90; 6HR MAX TEMP:  92;

WINFIELD       SUNNY     90  73  57 S12       29.94S HX  98
6HR MIN TEMP:  90; 6HR MAX TEMP:  94;

$$

KSZ007>012-019>026-033>040-048>060-102>105-210100-
NORTHEAST KANSAS

CITY           SKY/WX    TMP DP  RH WIND       PRES   REMARKS
CONCORDIA      CLOUDY    91  70  49 S13       29.87S HX  96
6HR MIN TEMP:  90; 6HR MAX TEMP:  94;

EMPORIA        MOSUNNY   89  74  60 SE12      29.94S HX  98
6HR MIN TEMP:  88; 6HR MAX TEMP:  94;

LAWRENCE       MOSUNNY   87  76  69 E9        29.94F HX  97
6HR MIN TEMP:  86; 6HR MAX TEMP:  90;

MANHATTAN      SUNNY     91  75  59 S12       29.89F HX 101
6HR MIN TEMP:  90; 6HR MAX TEMP:  96;

OLATHE IND     MOSUNNY   85  76  74 E8        29.97F
6HR MIN TEMP:  84; 6HR MAX TEMP:  89;

OLATHE EXE     PTSUNNY   84  76  76 SE7       29.97F
6HR MIN TEMP:  83; 6HR MAX TEMP:  87;

SALINA         PTSUNNY   97  65  34 S15       29.88S HX  99
6HR MIN TEMP:  97; 6HR MAX TEMP: 102;

TOPEKA BILLARD SUNNY     87  77  72 SE14      29.93F HX  99
6HR MIN TEMP:  87; 6HR MAX TEMP:  92;

TOPEKA FORBES  CLOUDY    87  75  67 E9        29.94S HX  96
6HR MIN TEMP:  87; 6HR MAX TEMP:  94;

$$




USA.gov is the U.S. government's official web portal to all federal, state and local government web resources and services.